EW0868 Weather Reports


Display with metric or nautical units.
time (UTC)temp
F
wind
direction
speed
MPH
gust
MPH
rain 1hr
in
rain 24hr
in
rain mn
in
humidity
%
barometer
mb
20260503233027 80 219 1.0 4.0 0.00 0.00 0.00 55 1009.0
20260503231539 81 245 0.0 3.0 0.00 0.00 0.00 56 1009.1
20260503230032 81 360 2.0 5.0 0.00 0.00 0.00 55 1009.4
20260503224546 81 275 3.0 7.0 0.00 0.00 0.00 53 1009.5
20260503223043 83 242 3.0 5.0 0.00 0.00 0.00 52 1009.6
20260503221537 86 211 5.0 8.0 0.00 0.00 0.00 46 1009.7
20260503220049 90 202 3.0 4.0 0.00 0.00 0.00 42 1009.9
20260503214542 0 360 2.0 4.0 0.00 0.00 0.00 39 1010.0
20260503213035 0 242 0.0 2.0 0.00 0.00 0.00 1010.1
20260503211533 0 67 2.0 5.0 0.00 0.00 0.00 1010.1
20260503210042 0 105 2.0 6.0 0.00 0.00 0.00 1010.4
20260503204537 0 97 2.0 7.0 0.00 0.00 0.00 1010.6
20260503203032 0 62 2.0 4.0 0.00 0.00 0.00 1010.7
20260503201527 0 30 2.0 6.0 0.00 0.00 0.00 1010.9
20260503200034 0 344 2.0 9.0 0.00 0.00 0.00 1011.1
20260503194528 0 106 3.0 7.0 0.00 0.00 0.00 1011.2
20260503193027 0 38 1.0 5.0 0.00 0.00 0.00 1011.4
20260503191540 0 63 0.0 4.0 0.00 0.00 0.00 1011.5
20260503190033 0 216 1.0 4.0 0.00 0.00 0.00 1011.7
20260503184528 0 21 0.0 0.0 0.00 0.00 0.00 1011.8
20260503183101 0 114 1.0 7.0 0.00 0.00 0.00 1012.1
20260503181557 0 118 1.0 9.0 0.00 0.00 0.00 1012.2
20260503180044 0 93 3.0 5.0 0.00 0.00 0.00 1012.3
20260503174540 0 82 2.0 8.0 0.00 0.00 0.00 1012.4
20260503173032 0 80 1.0 9.0 0.00 0.00 0.00 1012.4
20260503171529 0 26 0.0 2.0 0.00 0.00 0.00 1012.5
20260503081540 0 215 0.0 0.0 0.00 0.00 0.00 1013.7
20260503071533 51 215 0.0 0.0 0.00 0.00 0.00 89 1013.7
20260503054537 0 215 0.0 0.0 0.00 0.00 0.00 89 1013.8
20260503053034 0 215 0.0 0.0 0.00 0.00 0.00 1013.8
20260503051526 0 215 0.0 0.0 0.00 0.00 0.00 1013.9
20260503050032 0 215 0.0 0.0 0.00 0.00 0.00 1013.8
20260503044530 0 215 0.0 0.0 0.00 0.00 0.00 1013.6
20260503043041 0 215 0.0 0.0 0.00 0.00 0.00 1013.4
20260503041537 54 233 0.0 1.0 0.00 0.00 0.00 88 1013.3
20260503040046 54 360 0.0 0.0 0.00 0.00 0.00 87 1013.1
20260503034540 55 360 0.0 0.0 0.00 0.00 0.00 87 1012.9
20260503033038 55 219 0.0 6.0 0.00 0.00 0.00 87 1012.7
20260503031552 55 211 0.0 4.0 0.00 0.00 0.00 86 1012.7
20260503030037 56 215 0.0 0.0 0.00 0.00 0.00 1012.7
20260503024536 0 360 3.0 6.0 0.00 0.00 0.00 85 1012.5
20260503023029 0 360 0.0 7.0 0.00 0.00 0.00 1012.5
20260503021526 0 246 3.0 6.0 0.00 0.00 0.00 1012.4
20260503020035 0 218 2.0 5.0 0.00 0.00 0.00 100 1012.4
20260503014533 0 360 3.0 7.0 0.00 0.00 0.00 1012.4
20260503013106 0 246 0.0 7.0 0.00 0.00 0.00 1012.4
20260503011537 0 244 0.0 8.0 0.00 0.00 0.00 1012.4
20260503010050 158 360 5.0 9.0 0.00 0.00 0.00 1012.4
20260503004541 63 219 1.0 5.0 0.00 0.00 0.00 1012.4
20260503003039 63 227 1.0 5.0 0.00 0.00 0.00 80 1012.4
20260503001533 65 249 2.0 5.0 0.00 0.00 0.00 79 1012.5
20260503000044 64 242 1.0 5.0 0.00 0.00 0.00 80 1012.6
20260502234538 64 231 2.0 7.0 0.00 0.00 0.00 80 1012.8